Clintonville, WI

1:18 AM CST on January 20, 2018 (GMT -0600)
Clintonville Municipal

Weather History for KCLI - September, 2013

Change the Weather History Date:

Wednesday, September 25, 2013

  Actual Average Record
Temperature  
Mean Temperature 54 °F -  
Max Temperature 68 °F 65 °F 89 °F (2017)
Min Temperature 41 °F 41 °F 28 °F (1976)
Degree Days  
Heating Degree Days 10    
Growing Degree Days 4 (Base 50)    
Moisture  
Dew Point 47 °F    
Average Humidity 87    
Maximum Humidity 100    
Minimum Humidity 49    
Precipitation  
Precipitation 0.00 in - - ()
Sea Level Pressure  
Sea Level Pressure 30.02 in    
Wind  
Wind Speed 1 mph (East)    
Max Wind Speed 7 mph    
Max Gust Speed -    
Visibility 4 miles    
Events Fog    
Averages and records for this station are not official NWS values.
T = Trace of Precipitation, MM = Missing Value Source: NWS Daily Summary

Daily Weather History Graph

Daily Weather History Graph

Search for Another Location

Airport or City:

Trip Planner

Search our weather history database for the weather conditions in past years. The results will help you decide how hot, cold, wet, or windy it might be!

Date:

Astronomy

Sep. 25, 2013 Rise Set
Actual Time 6:45 AM CDT 6:46 PM CDT
Civil Twilight 6:16 AM CDT 7:15 PM CDT
Nautical Twilight 5:42 AM CDT 7:49 PM CDT
Astronomical Twilight 5:08 AM CDT 8:23 PM CDT
Moon 10:40 PM CDT (9/25) 1:04 PM CDT (9/25)
Length of Visible Light 12h 58m
Length of Day
12h 00m
Waning Gibbous, 64% of the Moon is Illuminated
Sep 25
Waning Gibbous
Sep 26
Last Quarter
Oct 4
New
Oct 11
First Quarter
Oct 18
Full

Hourly Weather History & Observations

Time (CDT) Temp. Dew Point Humidity Pressure Visibility Wind Dir Wind Speed Gust Speed Precip Events Conditions
12:15 AM 42.8 °F 42.8 °F 100% 30.01 in 1.0 mi Calm Calm - N/A   Mostly Cloudy
12:35 AM 42.8 °F 42.8 °F 100% 30.01 in 0.2 mi Calm Calm - N/A Fog Fog
12:55 AM 44.6 °F 44.6 °F 100% 30.01 in 1.5 mi Calm Calm - N/A   Mostly Cloudy
1:15 AM 42.8 °F 42.8 °F 100% 30.01 in 0.2 mi Calm Calm - N/A Fog Fog
1:35 AM 42.8 °F 42.8 °F 100% 30.01 in 0.8 mi Calm Calm - N/A   Overcast
1:55 AM 42.8 °F 42.8 °F 100% 30.01 in 0.2 mi Calm Calm - N/A Fog Fog
2:15 AM 42.8 °F 42.8 °F 100% 30.01 in 1.0 mi Calm Calm - N/A   Overcast
2:35 AM 42.8 °F 42.8 °F 100% 30.01 in 5.0 mi Calm Calm - N/A   Scattered Clouds
2:55 AM 42.8 °F 42.8 °F 100% 30.01 in 0.2 mi Calm Calm - N/A Fog Fog
3:15 AM 42.8 °F 42.8 °F 100% 30.02 in 0.8 mi Calm Calm - N/A   Overcast
3:35 AM 42.8 °F 42.8 °F 100% 30.02 in 0.2 mi Calm Calm - N/A Fog Fog
3:55 AM 42.8 °F 42.8 °F 100% 30.03 in 2.5 mi Calm Calm - N/A   Mostly Cloudy
4:15 AM 42.8 °F 42.8 °F 100% 30.03 in 0.2 mi Calm Calm - N/A Fog Fog
4:35 AM 41.0 °F 41.0 °F 100% 30.03 in 0.2 mi Calm Calm - N/A Fog Fog
4:55 AM 42.8 °F 42.8 °F 100% 30.03 in 0.2 mi Calm Calm - N/A Fog Fog
5:15 AM 41.0 °F 41.0 °F 100% 30.03 in 0.2 mi Calm Calm - N/A Fog Fog
5:35 AM 41.0 °F 41.0 °F 100% 30.03 in 0.2 mi Calm Calm - N/A Fog Fog
5:55 AM 41.0 °F 41.0 °F 100% 30.03 in 0.2 mi Calm Calm - N/A Fog Fog
6:15 AM 41.0 °F 41.0 °F 100% 30.03 in 0.2 mi Calm Calm - N/A Fog Fog
6:35 AM 41.0 °F 41.0 °F 100% 30.03 in 0.2 mi Calm Calm - N/A Fog Fog
6:55 AM 41.0 °F 41.0 °F 100% 30.04 in 0.2 mi Calm Calm - N/A Fog Fog
7:15 AM 41.0 °F 41.0 °F 100% 30.04 in 0.8 mi Calm Calm - N/A   Overcast
7:35 AM 41.0 °F 41.0 °F 100% 30.04 in 0.2 mi Calm Calm - N/A Fog Fog
7:55 AM 42.8 °F 42.8 °F 100% 30.04 in 1.2 mi Calm Calm - N/A   Overcast
8:15 AM 42.8 °F 42.8 °F 100% 30.04 in 3.0 mi Calm Calm - N/A   Overcast
8:35 AM 44.6 °F 44.6 °F 100% 30.04 in 0.2 mi Calm Calm - N/A Fog Fog
8:55 AM 44.6 °F 44.6 °F 100% 30.05 in 0.2 mi Calm Calm - N/A Fog Fog
9:15 AM 46.4 °F 46.4 °F 100% 30.05 in 0.2 mi Calm Calm - N/A Fog Fog
9:35 AM 48.2 °F 48.2 °F 100% 30.05 in 0.2 mi NNE 3.5 mph - N/A Fog Fog
9:55 AM 50.0 °F 50.0 °F 100% 30.05 in 0.2 mi ENE 3.5 mph - N/A Fog Fog
10:15 AM 50.0 °F 50.0 °F 100% 30.05 in 0.2 mi Calm Calm - N/A Fog Fog
10:35 AM 51.8 °F 51.8 °F 100% 30.05 in 1.0 mi East 3.5 mph - N/A   Overcast
10:55 AM 51.8 °F 51.8 °F 100% 30.04 in 2.5 mi ENE 4.6 mph - N/A   Overcast
11:15 AM 53.6 °F 53.6 °F 100% 30.05 in 7.0 mi Calm Calm - N/A   Overcast
11:35 AM 55.4 °F 55.4 °F 100% 30.04 in 10.0 mi Calm Calm - N/A   Mostly Cloudy
11:55 AM 59.0 °F 53.6 °F 82% 30.04 in 10.0 mi Calm Calm - N/A   Clear
12:15 PM 60.8 °F 53.6 °F 77% 30.03 in 10.0 mi NNE 4.6 mph - N/A   Scattered Clouds
12:35 PM 64.4 °F 51.8 °F 64% 30.03 in 10.0 mi East 3.5 mph - N/A   Scattered Clouds
1:15 PM 66.2 °F 51.8 °F 60% 30.02 in 10.0 mi Calm Calm - N/A   Mostly Cloudy
1:35 PM 64.4 °F 50.0 °F 59% 30.01 in 10.0 mi ENE 5.8 mph - N/A   Mostly Cloudy
1:55 PM 64.4 °F 50.0 °F 59% 30.01 in 10.0 mi Calm Calm - N/A   Scattered Clouds
2:15 PM 66.2 °F 50.0 °F 56% 30.00 in 10.0 mi SSW 4.6 mph - N/A   Clear
2:35 PM 66.2 °F 48.2 °F 52% 30.00 in 10.0 mi SE 4.6 mph - N/A   Clear
2:55 PM 68.0 °F 50.0 °F 52% 30.00 in 10.0 mi SE 6.9 mph - N/A   Clear
3:15 PM 68.0 °F 48.2 °F 49% 30.00 in 10.0 mi Calm Calm - N/A   Clear
3:55 PM 68.0 °F 50.0 °F 52% 29.99 in 2.5 mi SSE 6.9 mph - N/A   Haze
4:15 PM 68.0 °F 50.0 °F 52% 29.98 in 10.0 mi SE 6.9 mph - N/A   Clear
4:35 PM 68.0 °F 50.0 °F 52% 29.98 in 7.0 mi East 3.5 mph - N/A   Clear
4:55 PM 68.0 °F 50.0 °F 52% 29.99 in 7.0 mi ESE 5.8 mph - N/A   Clear
5:15 PM 68.0 °F 50.0 °F 52% 29.99 in 0.5 mi ESE 5.8 mph - N/A   Haze
5:35 PM 66.2 °F 50.0 °F 56% 29.99 in 3.0 mi East 5.8 mph - N/A   Haze
5:55 PM 64.4 °F 51.8 °F 64% 29.99 in 3.0 mi East 3.5 mph - N/A   Haze
6:15 PM 62.6 °F 51.8 °F 68% 29.99 in 2.5 mi East 3.5 mph - N/A   Haze
6:35 PM 62.6 °F 51.8 °F 68% 29.99 in 4.0 mi East 3.5 mph - N/A   Haze
6:55 PM 60.8 °F 51.8 °F 72% 29.99 in 3.0 mi East 4.6 mph - N/A   Haze
7:15 PM 59.0 °F 51.8 °F 77% 29.99 in 2.5 mi East 5.8 mph - N/A   Haze
7:35 PM 57.2 °F 51.8 °F 82% 29.99 in 4.0 mi East 5.8 mph - N/A   Haze
7:55 PM 55.4 °F 51.8 °F 88% 29.99 in 10.0 mi East 4.6 mph - N/A   Clear
8:15 PM 55.4 °F 51.8 °F 88% 30.00 in 10.0 mi East 5.8 mph - N/A   Clear
8:35 PM 55.4 °F 51.8 °F 88% 29.99 in 10.0 mi East 5.8 mph - N/A   Clear
8:55 PM 53.6 °F 51.8 °F 94% 30.00 in 10.0 mi East 3.5 mph - N/A   Clear
9:15 PM 53.6 °F 51.8 °F 94% 30.01 in 10.0 mi Calm Calm - N/A   Clear
9:35 PM 53.6 °F 51.8 °F 94% 30.01 in 10.0 mi Calm Calm - N/A   Clear
9:55 PM 50.0 °F 50.0 °F 100% 30.01 in 7.0 mi Calm Calm - N/A   Clear
10:15 PM 48.2 °F 48.2 °F 100% 30.01 in 1.5 mi Calm Calm - N/A   Scattered Clouds
10:35 PM 48.2 °F 48.2 °F 100% 30.01 in 2.5 mi Calm Calm - N/A   Scattered Clouds
10:55 PM 46.4 °F 46.4 °F 100% 30.02 in 1.0 mi Calm Calm - N/A   Mostly Cloudy
11:15 PM 46.4 °F 46.4 °F 100% 30.02 in 0.2 mi Calm Calm - N/A Fog Fog
11:35 PM 44.6 °F 44.6 °F 100% 30.02 in 0.2 mi Calm Calm - N/A Fog Fog
11:55 PM 44.6 °F 44.6 °F 100% 30.02 in 0.5 mi Calm Calm - N/A Fog Fog